Weather History for Washington, NC

Change the Weather History Date:

Saturday, March 1, 2014

  Actual Average (KEWN) Record (KEWN)
Temperature  
Mean Temperature 42 °F 50 °F  
Max Temperature 52 °F 61 °F 81 °F (2012)
Min Temperature 32 °F 38 °F 21 °F (1967)
Degree Days  
Heating Degree Days 23 16  
Month to date heating degree days 16  
Since 1 July heating degree days 2162  
Cooling Degree Days 0 0  
Month to date cooling degree days 0  
Year to date cooling degree days 3  
Moisture  
Dew Point 30 °F    
Average Humidity 66    
Maximum Humidity 86    
Minimum Humidity 45    
Precipitation  
Precipitation 0.00 in 0.14 in 1.48 in (1987)
Month to date precipitation 0.14  
Year to date precipitation 7.82  
Snow  
Snow 0.00 in - - ()
Month to date snowfall  
Since 1 July snowfall  
Snow Depth -    
Sea Level Pressure  
Sea Level Pressure 30.29 in    
Wind  
Wind Speed 5 mph (North)    
Max Wind Speed 10 mph    
Max Gust Speed -    
Visibility 10 miles    
Events      
T = Trace of Precipitation, MM = Missing Value Source: NWS Daily Summary

Daily Weather History Graph

Daily Weather History Graph

Search for Another Location

Airport:

Trip Planner

Search our weather history database for the weather conditions in past years. The results will help you decide how hot, cold, wet, or windy it might be!

Date:

Astronomy

Mar. 01, 2014 Rise Set
Actual Time 6:38 AM EST 6:03 PM EST
Civil Twilight 6:12 AM EST 6:29 PM EST
Nautical Twilight 5:42 AM EST 6:58 PM EST
Astronomical Twilight 5:13 AM EST 7:28 PM EST
Moon 6:32 AM EST (3/1) 6:45 PM EST (3/1)
Length of Visible Light 12h 16m
Length of Day
11h 25m
New Moon, 0% of the Moon is Illuminated
Mar 1
New Moon
Mar 8
First Quarter
Mar 16
Full
Mar 23
Last Quarter
Mar 30
New

Hourly Weather History & Observations

Time (EST) Temp. Windchill Dew Point Humidity Pressure Visibility Wind Dir Wind Speed Gust Speed Precip Events Conditions
12:15 AM 32.5 °F 26.2 °F 24.3 °F 72% 30.32 in 10.0 mi NE 6.9 mph - N/A   Overcast
12:35 AM 32.5 °F 26.2 °F 24.4 °F 72% 30.32 in 10.0 mi NE 6.9 mph - N/A   Overcast
12:55 AM 32.5 °F 27.1 °F 24.6 °F 73% 30.32 in 10.0 mi NNE 5.8 mph - N/A   Overcast
1:15 AM 32.5 °F 27.1 °F 24.4 °F 72% 30.32 in 10.0 mi NNE 5.8 mph - N/A   Overcast
1:35 AM 32.5 °F 24.8 °F 24.3 °F 72% 30.31 in 10.0 mi NNE 9.2 mph - N/A   Overcast
1:55 AM 32.5 °F 25.5 °F 24.1 °F 71% 30.31 in 10.0 mi North 8.1 mph - N/A   Overcast
2:15 AM 32.5 °F 26.2 °F 23.9 °F 70% 30.31 in 10.0 mi North 6.9 mph - N/A   Overcast
2:35 AM 32.5 °F 25.5 °F 24.3 °F 72% 30.31 in 10.0 mi North 8.1 mph - N/A   Overcast
2:55 AM 32.5 °F 25.5 °F 24.3 °F 72% 30.31 in 10.0 mi North 8.1 mph - N/A   Overcast
3:15 AM 32.5 °F 26.2 °F 24.1 °F 71% 30.31 in 10.0 mi North 6.9 mph - N/A   Overcast
3:35 AM 32.5 °F 25.5 °F 23.9 °F 70% 30.31 in 10.0 mi North 8.1 mph - N/A   Overcast
3:55 AM 32.5 °F 29.3 °F 24.1 °F 71% 30.31 in 10.0 mi North 3.5 mph - N/A   Overcast
4:15 AM 32.5 °F 26.2 °F 24.3 °F 72% 30.30 in 10.0 mi NNE 6.9 mph - N/A   Overcast
4:35 AM 32.5 °F 26.2 °F 24.4 °F 72% 30.30 in 10.0 mi North 6.9 mph - N/A   Overcast
4:55 AM 32.5 °F 27.1 °F 24.4 °F 72% 30.30 in 10.0 mi North 5.8 mph - N/A   Overcast
5:15 AM 32.9 °F 28.5 °F 24.6 °F 72% 30.31 in 10.0 mi North 4.6 mph - N/A   Overcast
5:35 AM 33.1 °F 26.1 °F 25.2 °F 73% 30.32 in 10.0 mi North 8.1 mph - N/A   Overcast
5:55 AM 33.8 °F 27.7 °F 25.7 °F 72% 30.32 in 10.0 mi North 6.9 mph - N/A   Overcast
6:15 AM 33.3 °F 27.9 °F 25.2 °F 72% 30.32 in 10.0 mi North 5.8 mph - N/A   Overcast
6:35 AM 33.8 °F 28.6 °F 25.7 °F 72% 30.32 in 10.0 mi North 5.8 mph - N/A   Overcast
6:55 AM 33.8 °F 27.0 °F 25.7 °F 72% 30.33 in 10.0 mi North 8.1 mph - N/A   Overcast
7:15 AM 33.8 °F 27.7 °F 25.7 °F 72% 30.33 in 10.0 mi North 6.9 mph - N/A   Overcast
7:35 AM 34.3 °F 29.2 °F 26.2 °F 72% 30.33 in 10.0 mi North 5.8 mph - N/A   Overcast
7:55 AM 35.1 °F 29.3 °F 26.8 °F 72% 30.35 in 10.0 mi North 6.9 mph - N/A   Overcast
8:15 AM 36.0 °F 29.0 °F 27.5 °F 71% 30.34 in 10.0 mi North 9.2 mph - N/A   Mostly Cloudy
8:35 AM 37.6 °F 31.6 °F 28.9 °F 71% 30.35 in 10.0 mi North 8.1 mph - N/A   Mostly Cloudy
8:55 AM 37.6 °F 30.5 °F 28.0 °F 68% 30.36 in 10.0 mi North 10.4 mph - N/A   Mostly Cloudy
9:15 AM 38.8 °F 34.6 °F 28.0 °F 65% 30.37 in 10.0 mi NNW 5.8 mph - N/A   Mostly Cloudy
9:35 AM 39.6 °F 35.4 °F 28.9 °F 66% 30.35 in 10.0 mi North 5.8 mph - N/A   Scattered Clouds
9:55 AM 40.1 °F 34.7 °F 28.4 °F 63% 30.35 in 10.0 mi NE 8.1 mph - N/A   Scattered Clouds
10:15 AM 40.8 °F 36.9 °F 28.4 °F 61% 30.34 in 10.0 mi NNE 5.8 mph - N/A   Scattered Clouds
10:35 AM 42.8 °F 41.1 °F 29.3 °F 59% 30.34 in 10.0 mi North 3.5 mph - N/A   Scattered Clouds
10:55 AM 44.1 °F 40.1 °F 29.1 °F 56% 30.32 in 10.0 mi North 6.9 mph - N/A   Clear
11:15 AM 45.5 °F 42.5 °F 28.9 °F 52% 30.34 in 10.0 mi North 5.8 mph - N/A   Scattered Clouds
11:35 AM 47.3 °F - 29.7 °F 50% 30.33 in 10.0 mi NE 4.6 mph - N/A   Scattered Clouds
11:55 AM 48.0 °F - 29.3 °F 48% 30.32 in 10.0 mi NNW 5.8 mph - N/A   Scattered Clouds
12:15 PM 50.5 °F - 31.1 °F 47% 30.32 in 10.0 mi North 5.8 mph - N/A   Clear
12:35 PM 52.7 °F - 31.8 °F 45% 30.31 in 10.0 mi West 5.8 mph - N/A   Scattered Clouds
12:55 PM 52.7 °F - 32.0 °F 45% 30.30 in 10.0 mi NNW 3.5 mph - N/A   Scattered Clouds
1:15 PM 52.7 °F - 31.8 °F 45% 30.30 in 10.0 mi NNW 5.8 mph - N/A   Scattered Clouds
1:35 PM 52.7 °F - 31.6 °F 45% 30.29 in 10.0 mi NNW 3.5 mph - N/A   Scattered Clouds
1:55 PM 52.7 °F - 32.0 °F 45% 30.28 in 10.0 mi NW 5.8 mph - N/A   Scattered Clouds
2:15 PM 50.4 °F - 31.3 °F 48% 30.27 in 10.0 mi NNW 5.8 mph - N/A   Scattered Clouds
2:35 PM 50.0 °F - 31.5 °F 49% 30.26 in 10.0 mi NNW 3.5 mph - N/A   Mostly Cloudy
2:55 PM 50.5 °F - 31.1 °F 47% 30.25 in 10.0 mi North 4.6 mph - N/A   Scattered Clouds
3:15 PM 52.7 °F - 32.5 °F 46% 30.24 in 10.0 mi North 4.6 mph - N/A   Clear
3:35 PM 52.7 °F - 32.0 °F 45% 30.24 in 10.0 mi NW 3.5 mph - N/A   Clear
3:55 PM 52.7 °F - 32.2 °F 46% 30.24 in 10.0 mi Calm Calm - N/A   Clear
4:15 PM 52.7 °F - 32.9 °F 47% 30.24 in 10.0 mi Calm Calm - N/A   Clear
4:35 PM 52.7 °F - 32.5 °F 46% 30.24 in 10.0 mi Calm Calm - N/A   Clear
4:55 PM 52.7 °F - 33.4 °F 48% 30.24 in 10.0 mi Calm Calm - N/A   Clear
5:15 PM 52.7 °F - 34.2 °F 49% 30.25 in 10.0 mi NNW 3.5 mph - N/A   Scattered Clouds
5:35 PM 52.7 °F - 34.7 °F 50% 30.26 in 10.0 mi North 4.6 mph - N/A   Scattered Clouds
5:55 PM 52.7 °F - 36.1 °F 53% 30.26 in 10.0 mi NNE 3.5 mph - N/A   Scattered Clouds
6:15 PM 50.2 °F - 37.4 °F 62% 30.26 in 10.0 mi Calm Calm - N/A   Clear
6:35 PM 46.0 °F - 37.0 °F 71% 30.26 in 10.0 mi Calm Calm - N/A   Clear
6:55 PM 45.1 °F - 37.6 °F 75% 30.26 in 10.0 mi Calm Calm - N/A   Clear
7:15 PM 44.4 °F - 37.2 °F 76% 30.26 in 10.0 mi Calm Calm - N/A   Clear
7:35 PM 43.3 °F - 37.0 °F 78% 30.26 in 10.0 mi Calm Calm - N/A   Clear
7:55 PM 42.8 °F - 36.7 °F 79% 30.26 in 10.0 mi Calm Calm - N/A   Scattered Clouds
8:15 PM 42.8 °F - 37.2 °F 81% 30.27 in 10.0 mi Calm Calm - N/A   Clear
8:35 PM 42.3 °F - 37.4 °F 83% 30.27 in 10.0 mi Calm Calm - N/A   Clear
8:55 PM 40.5 °F - 36.3 °F 85% 30.27 in 10.0 mi Calm Calm - N/A   Clear
9:15 PM 40.3 °F - 35.8 °F 84% 30.27 in 10.0 mi Calm Calm - N/A   Clear
9:35 PM 40.1 °F - 36.1 °F 86% 30.26 in 10.0 mi Calm Calm - N/A   Clear
9:55 PM 40.1 °F - 36.1 °F 86% 30.26 in 10.0 mi Calm Calm - N/A   Clear
10:15 PM 40.1 °F - 36.1 °F 86% 30.25 in 10.0 mi Calm Calm - N/A   Clear
10:35 PM 38.8 °F - 34.9 °F 86% 30.25 in 10.0 mi Calm Calm - N/A   Clear
10:55 PM 37.8 °F - 33.8 °F 86% 30.25 in 10.0 mi Calm Calm - N/A   Clear
11:15 PM 38.3 °F - 34.3 °F 86% 30.25 in 10.0 mi Calm Calm - N/A   Clear
11:35 PM 38.3 °F - 34.3 °F 86% 30.24 in 10.0 mi Calm Calm - N/A   Clear
11:55 PM 37.6 °F - 33.8 °F 86% 30.24 in 10.0 mi Calm Calm - N/A   Clear